STARLINK-3923, 52489

Orbit data source: Space-Track

STARLINK-3923, 52489 is a payload satellite owned by SpaceX/Seattle (US) in LEO that was launched on Fri, 06 May 2022 UTC via an FALCON 9 launch vehicle from the Air Force Eastern Test Range (AFETR). Payload-class satellites include a variety of spacecraft equipped with specific instruments for various scientific and technological missions. These include communications satellites like Starlink; space stations such as the ISS; scientific satellites like the Hubble; Earth observation satellites from companies like Planet Labs, Umbra, and HawkEye 360; GPS; miniature CubeSats for education and research; and military/defense satellites.

Loading next visibility...
Identifier
52489, 2022-049AQ
Orbit
LEO
Country
Flag of USUS
Related business
Manufacturer
SpaceX/Seattle
Mission
Operational Commercial Communications
Bus & Motor
STARLINK, Unknown motor
Mass
297 kg wet, ~220 kg dry
Launch date (UTC)
2022-05-06 (4 years ago)
Launch vehicle
FALCON 9
Launch site
Air Force Eastern Test Range (AFETR)
Object type
Payload
Rocket body
Debris
Shape & HBR
Box + 1 Pan, 10.1 m
Radar Cross Section
13.562 m², Large (>1 m²)

Expand to show TLE details & history
Last TLE update: 18 hours ago

TLE from 18 hours ago
0 STARLINK-3923
1 52489U 22049AQ  26235.77315909  .00000372  00000-0  22645-4 0  9999
2 52489  53.1629  23.2552 0001237  92.4529 267.6615 15.33548732237555
Epoch: 2026-08-23T18:33Z
TLE epoch observation values (Epoch: 2026-08-23T18:33:20.945Z)
Latitude
-0.00001°
Longitude
132.85352°
Altitude
466.171 km
Speed
7.634 km/s
True Right ascension
01h 33m 01s
True Declination
0° 00' 00"
Sunlit
Object was in full shadow at epoch
Visualization orbit readout
Latitude
Unknown
Longitude
Unknown
Altitude
Unknown
Speed
Unknown
Apparent Right ascension
Unknown
Apparent Declination
Unknown
Sunlit
N/A
Visualization observer readout
Local Sidereal Time
04:05:05
Azimuth
Unknown
Elevation
Unknown
Doppler factor
Unknown
Orbital elements
Apogee altitude
466.337 km
Perigee altitude
464.644 km
Semi-major axis
6,843.628 km
Eccentricity
0.00012
Inclination
53.1629°
RAAN
23.2552°
Arg. of periapsis
92.4529°
True anomaly
267.64734°
Mean anomaly
267.6615°
Eccentric anomaly
267.65442°
Mean motion
3.83366 °/min
Orbital period
93.91 mins
BSTAR
0.000022645
Loading maneuver chart data...
Computing Atmospheric mass density...
Loading historical data...
Loading historical data...
Loading historical data...
Loading historical data...
Loading historical data...
Loading historical data...
Loading historical data...

Documentation

Showing up to 5 results
|